Flag for France Weather past 2 weeks in Amiens, France

Now
84 °F

Clear.


Feels Like: 83 °F
Forecast: 59 / 79 °F
Wind: 8 mph from Northeast

Location: Beauvais Airport

Current Time: Jul 24, 2014 at 5:29:17 PM

Latest Report: Jul 24, 2014 at 5:00 PM


Visibility: N/A

Pressure: 29.92 "Hg

Humidity: 40%

Dew point: 57 °F

Location of AmiensLocation

Historic Weather in Amiens — Graph

°F

Amiens temperature yesterday

Maximum temperature yesterday: 86 °F (at 4:30 PM)
Minimum temperature yesterday: 61 °F (at 2:00 AM)
Average temperature yesterday: 71 °F

Past Weeks' High & Low Weather Summary

 TemperatureHumidityPressure
High95 °F (Jul 18, 4:30 PM)100% (Jul 11, 1:00 AM)30.18 "Hg (Jul 11, 1:00 AM)
Low52 °F (Jul 15, 2:30 AM)36% (Jul 18, 4:30 PM)29.71 "Hg (Jul 19, 7:00 PM)
Average66 °F80%29.99 "Hg
* Reported Jul 9 4:00 PM — Jul 24 4:30 PM, Amiens, Weather by CustomWeather, © 2014

Note: Actual official high and low records may vary slightly from our data, if they occured in-between our weather recording intervals... More about our weather records

Advertising

Amiens weather history for previous 24 hours

 ConditionsComfort  
Time TempWeatherWind HumidityBarometerVisibility
4:30 PM
Jul 24
84 °FPleasantly warm.9 mph40%29.92 "HgN/A
4:00 PM84 °FClear.7 mph43%29.92 "HgN/A
3:30 PM84 °FClear.7 mph43%29.92 "HgN/A
3:00 PM84 °FClear.6 mph40%29.92 "HgN/A
2:30 PM84 °FClear.6 mph40%29.95 "HgN/A
2:00 PM84 °FClear.8 mph45%29.95 "HgN/A
1:30 PM84 °FClear.9 mph43%29.95 "HgN/A
1:00 PM82 °FClear.10 mph51%29.95 "HgN/A
12:30 PM82 °FClear.10 mph48%29.95 "HgN/A
12:00 PM81 °FClear.10 mph51%29.95 "HgN/A
11:30 AM79 °FClear.6 mph61%29.95 "HgN/A
10:30 AM75 °FClear.3 mph69%29.95 "HgN/A
10:00 AM73 °FClear.7 mph74%29.95 "HgN/A
9:30 AM72 °FClear.8 mph78%29.95 "HgN/A
9:00 AM70 °FClear.6 mph83%29.95 "HgN/A
8:30 AM68 °FClear.3 mph88%29.95 "HgN/A
8:00 AM64 °FClear.3 mph94%29.95 "Hg6 mi
7:30 AM63 °FClear.5 mph94%29.95 "Hg4 mi
7:00 AM61 °FFog.6 mph100%29.95 "Hg3 mi
6:30 AM59 °FFog.5 mph94%29.95 "Hg3 mi
6:00 AM59 °FClear.3 mph100%29.95 "Hg4 mi
5:30 AM59 °FClear.3 mph100%29.95 "Hg4 mi
5:00 AM59 °FClear.5 mph100%29.95 "Hg4 mi
4:30 AM61 °FClear.3 mph94%29.95 "HgN/A
4:00 AM59 °FClear.3 mph94%29.95 "HgN/A
3:30 AM61 °FClear.2 mph94%29.95 "HgN/A
3:00 AM63 °FClear.2 mph88%29.95 "HgN/A
2:30 AM63 °FClear.2 mph94%29.95 "HgN/A
2:00 AM63 °FClear.2 mph88%29.95 "HgN/A
1:30 AM64 °FClear.2 mph83%29.98 "HgN/A
1:00 AM64 °FClear.1 mph83%29.98 "HgN/A
12:30 AM64 °FClear.1 mph83%29.98 "HgN/A
12:00 AM66 °FClear.8 mph78%29.98 "HgN/A
11:30 PM
Jul 23
64 °FClear.9 mph83%29.98 "HgN/A
11:00 PM64 °FClear.5 mph83%29.98 "HgN/A
10:30 PM66 °FClear.2 mph83%29.98 "HgN/A
10:00 PM66 °FClear.8 mph83%29.98 "HgN/A
9:30 PM66 °FMore clouds than sun.7 mph83%29.98 "HgN/A
9:00 PM68 °FThundershowers. Cloudy.16 mph73%29.98 "Hg5 mi
8:30 PM73 °FThunderstorms. Cloudy.12 mph65%29.98 "HgN/A
8:00 PM75 °FThundershowers. Cloudy.6 mph83%29.95 "HgN/A
7:30 PM73 °FMild.3 mph83%29.95 "HgN/A
7:00 PM73 °FThunderstorms. Broken clouds.3 mph78%29.95 "HgN/A
6:30 PM72 °FStrong thunderstorms. Fog.20 mph73%29.95 "Hg2 mi
6:00 PM84 °FThunderstorms. Cloudy.13 mph43%29.95 "HgN/A
5:30 PM86 °FWarm.9 mph40%29.95 "HgN/A
5:00 PM84 °FWarm.10 mph48%29.95 "HgN/A
Weather by CustomWeather, © 2014

See weather overviewHow to use our weather pages